Regional Weather Roundup
Issued by NWS

Home | Current Version | Previous Version | Graphics & Text | Print | Product List | Glossary On
Versions: 1 2 3 4 5 6 7 8 9 10 11 12 13 14 15 16 17 18 19 20 21 22 23 24 25 26 27 28 29 30 31 32 33 34 35 36 37 38 39 40 41 42 43 44 45 46 47 48 49 50
000
ASUS43 KDTX 052101
RWRMI
MICHIGAN HOURLY REGIONAL WEATHER ROUNDUP
NATIONAL WEATHER SERVICE DETROIT/PONTIAC MI
500 PM EDT TUE MAY 05 2015

NOTE: "FAIR" INDICATES FEW OR NO CLOUDS BELOW 12,000 FEET WITH NO
SIGNIFICANT WEATHER AND/OR OBSTRUCTION TO VISIBILITY.

MIZ047>049-052>055-059>063-066>070-074>076-081>083-052200-
SOUTHEAST LOWER MICHIGAN

CITY           SKY/WX    TMP DP  RH WIND       PRES   REMARKS
ADRIAN         LGT RAIN  54  51  90 E10       30.26F
ALMA           CLOUDY    58  47  66 E6        30.28F
ANN ARBOR      CLOUDY    51  46  83 NE9       30.27F
BAD AXE        CLOUDY    55  45  68 N5        30.29F
CARO           CLOUDY    58  46  62 N6        30.29S
DETROIT CITY   LGT RAIN  51  47  86 NE8       30.29F FOG
DETROIT        LGT RAIN  53  48  83 N7        30.28F
FLINT          LGT RAIN  54  49  83 E5        30.30F
GROSSE ILE     LGT RAIN  52  48  87 NE10      30.26F
HILLSDALE      CLOUDY    54  54  99 NE6       30.25F FOG
HOWELL         DRIZZLE   50  49  97 NE6       30.27F

CITY           SKY/WX    TMP DP  RH WIND       PRES   REMARKS
JACKSON        LGT RAIN  50  48  93 NE6       30.27F FOG
LAMBERTVILLE   CLOUDY    55  50  82 NE7       30.26F
LANSING        LGT RAIN  50  48  93 E6        30.29F FOG
LAPEER         LGT RAIN  52  47  85 CALM      30.30S
MASON          LGT RAIN  49  47  92 E5        30.28F
MONROE         CLOUDY    54  50  87 E9        30.25F
MT. CLEMENS    LGT RAIN  53  51  92 N6        30.26F FOG
PONTIAC        LGT RAIN  51  50  96 NE3       30.29S FOG
PORT HOPE        N/A     45  40  82 N6        30.29F
PORT HURON     LGT RAIN  46  46 100 CALM      30.30S
TRI CITIES     CLOUDY    59  45  59 E7        30.29F
MIDLAND        CLOUDY    61  40  46 E7        30.28F
TROY           LGT RAIN  53  51  95 N6        30.30F
SAGINAW HB     CLOUDY    59  45  58 E3        30.28F
$$
MIZ043>046-050>051-056>058-064>065-071>073-077>080-052200-
SOUTHWEST LOWER MICHIGAN

CITY           SKY/WX    TMP DP  RH WIND       PRES   REMARKS
BATTLE CREEK   LGT RAIN  50  47  89 NE10      30.27F
BENTON HARBOR  CLOUDY    56  53  90 NE8       30.21F
BIG RAPIDS     PTSUNNY   63  27  25 SE8G16    30.27S
COLDWATER      CLOUDY    53  50  92 NE10      30.24F FOG
FREMONT        CLOUDY    60  39  46 E7        30.27F
HOLLAND        LGT RAIN  51  49  92 E10       30.27F
GRAND RAPIDS   CLOUDY    51  48  89 E10G28    30.28S
IONIA          PTSUNNY   53  49  88 E10       30.28F
KALAMAZOO      LGT RAIN  50  47  89 NE9       30.26F
LUDINGTON      PTSUNNY   60  32  35 W7        30.28F
MARSHALL       RAIN      47  46  96 NE5       30.26F
MOUNT PLEASANT CLOUDY    64  33  31 NE5       30.27F
MUSKEGON       PTSUNNY   61  49  64 E9        30.27S
SOUTH HAVEN    CLOUDY    53  50  88 E9        30.24F
$$
MIZ016>042-052200-
NORTHERN LOWER MICHIGAN

CITY           SKY/WX    TMP DP  RH WIND       PRES   REMARKS
ALPENA         PTSUNNY   63  45  51 VRB7      30.29F
BEAVER ISLAND  SUNNY     64  30  27 W7        30.29F
BELLAIRE       SUNNY     69  29  22 W7        30.26F
CADILLAC       PTSUNNY   66  18  16 E3        30.26F
CHARLEVOIX     SUNNY     58  31  35 N6        30.30F
FRANKFORT      MOSUNNY   68  19  15 N8        30.26F
GAYLORD        MOSUNNY   66  21  18 VRB3      30.27F
GRAYLING       MOSUNNY   68  20  16 N3        30.28S
HARBOR SPRINGS SUNNY     68  20  16 E3        30.27F
HOUGHTON LAKE  CLOUDY    66  17  15 CALM      30.27F
MANISTEE       MOSUNNY   61  30  31 N8        30.27F
OSCODA         CLOUDY    48  41  77 E7        30.30F
PELLSTON       SUNNY     69  22  16 NE10      30.28F
ROGERS CITY    MOSUNNY   56  43  59 NE5       30.31F
TRAVERSE CITY  MOSUNNY   59  39  47 N8        30.26F
$$
MIZ007>008-015-052200-
EASTERN UPPER MICHIGAN

CITY           SKY/WX    TMP DP  RH WIND       PRES   REMARKS
KINROSS        SUNNY     66  27  22 N6        30.28F
MACKINAC ISLAN SUNNY     64  27  25 SE8       30.28F
NEWBERRY       SUNNY     67  29  24 CALM      30.27F
S. S. MARIE    SUNNY     67  26  21 NW7       30.27F
MUNISING         N/A     49  33  54 N8        30.27F
$$
MIZ004>006-011>014-085-052200-
CENTRAL UPPER MICHIGAN

CITY           SKY/WX    TMP DP  RH WIND       PRES   REMARKS
MANISTIQUE     SUNNY     63  28  27 S7        30.29F
ESCANABA       SUNNY     61  28  29 S10       30.29F
MENOMINEE      SUNNY     63  30  29 E8        30.28F
SAWYER-GWINN   SUNNY     68  30  24 E5        30.26F
$$
MIZ001>003-009>011-084-052200-
WESTERN UPPER MICHIGAN

CITY           SKY/WX    TMP DP  RH WIND       PRES   REMARKS
IRON MOUNTAIN  SUNNY     68  29  23 S9        30.25F
HOUGHTON       SUNNY     64  29  26 E14       30.25F
COPPER HARBOR    N/A     63  33  32 VRB5      30.25F
IRONWOOD       SUNNY     72  32  23 S5        30.16F
$$

ABBREVIATIONS USED IN REMARKS
   TC - TEMPERATURE IN CELSIUS
  WCI - WIND CHILL INDEX
   HX - HEAT INDEX
  VSB - VISIBILITY



USA.gov is the U.S. government's official web portal to all federal, state and local government web resources and services.